Location: Rounton
(54.4000°N, 1.3500°W)
Time: 01:03:39
(UTC+01:00)

FENGYUN 1C DEB - Pass Details

Date: 03 July 2022
Orbit: 737 x 860 km, 99.3° (Epoch: 14 August)

Event Time Altitude Azimuth Distance (km) Brightness Sun altitude
Exits shadow 23:55:02 - 213° (SSW) 3,141 ? -11.0°
Reaches altitude 10° 23:58:03 10° 234° (SW) 2,266 ? -11.1°
Maximum altitude 00:01:04 16° 272° (W) 1,878 ? -11.2°
Drops below altitude 10° 00:04:05 10° 310° (NW) 2,258 ? -11.3°
Sets 00:07:16 0° 332° (NNW) 3,184 ? -11.5°
